FENGYUN 1C DEB

Satellite information

Favourite Embed

Satellite Type and Status

DEBRISIN ORBIT

Key statistics

Satellite FENGYUN 1C DEB at a glance.

Uptime

9715

Days in orbit

Revolutions

≈ 14.5

Per day

Orbit

SSO

Sun Synchronous Orbit

Inclination

98.7

Latest

Satellite identification and parameters

Extended collection of information and parameters for FENGYUN 1C DEB.

Object identification

Identified? True

Debris? True

Object name: FENGYUN 1C DEB

International designator: 1999-025LN

Object number (NORAD): 29988

Object ID (CCSDS): 29988

Country: PEOPLES REPUBLIC OF CHINA (PRC)

Current information (Y/N): Y

RCS size: MEDIUM

Orbital parameters

Period: 99.285 minutes

Inclination: 98.6952 deg

SMA: 7102.553 km

Apoapsis: 810.077 km

Periapsis: 638.759 km

RAAN: 90.1393 deg

Eccentricy: 0.01206031

Argument of periapsis: 19.7936 deg

Mean anomaly: 39.4861 deg

Mean motion: 14.50377359 rev/day

Mean motion (dot): 0.00009844 rev/day2

B* drag term: 0.0023059332 1/REarth

Two-line elements (TLE)

Creation date: Dec. 12, 2025, 10:14 a.m.

Reference frame: TEME

Reference center: EARTH

Epoch: Dec. 12, 2025, 6:01 a.m. UTC

TLE line 0: 0 FENGYUN 1C DEB

TLE line 1: 1 29988U 99025LN 25346.25137218 .00009844 00000-0 23059-2 0 9996

TLE line 2: 2 29988 98.6952 90.1393 0120603 19.7936 39.4861 14.50377359980607

Live tracking on map

Real-time ground track for satellite FENGYUN 1C DEB.

In-orbit conjunctions

A list of the most updated potential collisions computed for object FENGYUN 1C DEB.

Target Orbit TCA Probability of collision Miss distance Type
COSMOS 397 DEB * LEO 2025-08-27 04:06:22 0.0003478879 140.0 (m) DEBRIS
CZ-6A DEB LEO 2025-02-18 05:22:18 0.0002008153 304.0 (m) DEBRIS

Associated space launch

Chinese polar orbiting meteorological satellite

FENGYUN 1C DEB was lifted into orbit during the mission ‘Long March 4B | Feng Yun 1C’, on board a Long March 4B space rocket.

The launch took place on May 10, 1999, 1:33 a.m. from Launch Complex 7.

For more information about the launch, click the button.

Launch to space Long March 4B | Feng Yun 1C
Long March 4B | Feng Yun 1C

Agency: N/A

Status: Launch Successful

Launch date: May 10, 1999, 1:33 a.m. UTC

Rocket: Long March 4B

Launch pad: Launch Complex 7

Location: Taiyuan Satellite Launch Center, People's Republic of China

...

Latest news about this satellite

There are no fresh news available about this satellite. Check back as we update our databases every day.


Newsletter sign-up

Weekly statistics, charts and insights to help you stay on top of the space industry.